Location: Newark
(51.2625°N, 13.3939°E)
Time: 14:40:49
(UTC+00:00)

Explorer 7 - Pass Details

Date: 21 November 2019
Orbit: 485 x 680 km, 50.3° (Epoch: 11 December)

Event Time Altitude Azimuth Distance (km) Brightness Sun altitude
Rises 00:55:11 0° 262° (W) 2,909 - -50.4°
Reaches altitude 10° 00:57:34 10° 261° (W) 1,971 - -50.1°
Maximum altitude 01:02:04 79° 176° (S) 602 - -49.5°
Drops below altitude 10° 01:06:18 10° 90° (E) 1,846 - -49.0°
Sets 01:08:28 0° 89° (E) 2,708 - -48.8°
